When you browse on this site, cookies collect data to enhance your experience and personalize the content and advertising you see.
Visit our Privacy Policy to learn more. By continuing to use the site, you agree to this use of cookies and data.
  • In Österreich
  • Länderverzeichnis
  • Für 7 Tage
  • Wassertemperatur
  • Wetterkarte
  • News
  • Widgets
  • user-avatar
    Anmelden

    Stündliche Wetter Bijsk

    Heute, 6 April, Montag

    Zeit Temperatur Niederschläge Wind Luftdruck Luftfeuchtigkeit
    00:00 +2°C° 0 mm 2 m/S 747 mmHg 95%
    01:00 +2°C° 0 mm 2 m/S 746 mmHg 94%
    02:00 +2°C° 0 mm 2 m/S 746 mmHg 93%
    03:00 +3°C° 0 mm 1 m/S 745 mmHg 92%
    04:00 +3°C° 0 mm 1 m/S 745 mmHg 88%
    05:00 +3°C° 0 mm 1 m/S 745 mmHg 84%
    06:00 +3°C° 0 mm 1 m/S 745 mmHg 81%
    07:00 +4°C° 0 mm 1 m/S 745 mmHg 82%
    08:00 +5°C° 0 mm 1 m/S 745 mmHg 84%
    09:00 +6°C° 0 mm 1 m/S 745 mmHg 85%
    10:00 +6°C° 0 mm 2 m/S 745 mmHg 84%
    11:00 +7°C° 0 mm 2 m/S 745 mmHg 83%
    12:00 +8°C° 0 mm 3 m/S 745 mmHg 83%
    13:00 +8°C° 0 mm 3 m/S 746 mmHg 85%
    14:00 +7°C° 0 mm 3 m/S 746 mmHg 87%
    15:00 +7°C° 0 mm 3 m/S 746 mmHg 89%
    16:00 +7°C° 0 mm 3 m/S 747 mmHg 89%
    17:00 +6°C° 0 mm 2 m/S 747 mmHg 89%
    18:00 +6°C° 0 mm 2 m/S 748 mmHg 89%
    19:00 +7°C° 0 mm 1 m/S 748 mmHg 90%
    20:00 +6°C° 0 mm 1 m/S 748 mmHg 91%
    21:00 +6°C° 0 mm 1 m/S 749 mmHg 92%
    22:00 +5°C° 0 mm 1 m/S 749 mmHg 93%
    23:00 +5°C° 0 mm 1 m/S 749 mmHg 94%

    Morgen, 7 April, Dienstag

    Zeit Temperatur Niederschläge Wind Luftdruck Luftfeuchtigkeit
    00:00 +5°C° 0 mm 1 m/S 749 mmHg 95%
    01:00 +4°C° 0 mm 2 m/S 749 mmHg 96%
    02:00 +4°C° 0 mm 2 m/S 748 mmHg 96%
    03:00 +3°C° 0 mm 2 m/S 748 mmHg 97%
    04:00 +3°C° 0 mm 2 m/S 749 mmHg 97%
    05:00 +3°C° 0 mm 2 m/S 749 mmHg 97%
    06:00 +2°C° 0 mm 3 m/S 749 mmHg 98%
    07:00 +3°C° 0 mm 3 m/S 749 mmHg 97%
    08:00 +3°C° 0 mm 3 m/S 748 mmHg 97%
    09:00 +3°C° 0 mm 3 m/S 748 mmHg 97%
    10:00 +4°C° 0 mm 3 m/S 747 mmHg 95%
    11:00 +5°C° 0 mm 3 m/S 747 mmHg 94%
    12:00 +6°C° 0 mm 4 m/S 746 mmHg 92%
    13:00 +8°C° 0 mm 3 m/S 745 mmHg 92%
    14:00 +8°C° 0 mm 3 m/S 745 mmHg 91%
    15:00 +9°C° 0 mm 3 m/S 744 mmHg 91%
    16:00 +9°C° 0 mm 3 m/S 744 mmHg 91%
    17:00 +9°C° 0 mm 3 m/S 744 mmHg 91%
    18:00 +8°C° 0 mm 3 m/S 743 mmHg 91%
    19:00 +8°C° 0 mm 3 m/S 744 mmHg 88%
    20:00 +8°C° 0 mm 3 m/S 744 mmHg 85%
    21:00 +7°C° 0 mm 2 m/S 744 mmHg 82%
    22:00 +7°C° 0 mm 2 m/S 744 mmHg 80%
    23:00 +7°C° 0 mm 2 m/S 744 mmHg 79%

    übermorgen, 8 April, Mittwoch

    Zeit Temperatur Niederschläge Wind Luftdruck Luftfeuchtigkeit
    00:00 +7°C° 0 mm 2 m/S 744 mmHg 77%
    01:00 +7°C° 0 mm 2 m/S 744 mmHg 75%
    02:00 +7°C° 0 mm 3 m/S 743 mmHg 74%
    03:00 +7°C° 0 mm 3 m/S 743 mmHg 72%
    04:00 +7°C° 0 mm 3 m/S 744 mmHg 72%
    05:00 +7°C° 0 mm 2 m/S 744 mmHg 72%
    06:00 +7°C° 0 mm 2 m/S 744 mmHg 72%
    07:00 +8°C° 0 mm 3 m/S 745 mmHg 74%
    08:00 +7°C° 0 mm 4 m/S 745 mmHg 77%
    09:00 +8°C° 0 mm 4 m/S 746 mmHg 79%
    10:00 +7°C° 0.1 mm 4 m/S 746 mmHg 78%
    11:00 +8°C° 0.1 mm 3 m/S 747 mmHg 76%
    12:00 +7°C° 0.1 mm 3 m/S 747 mmHg 75%
    13:00 +5°C° 0.4 mm 3 m/S 748 mmHg 80%
    14:00 +4°C° 0.4 mm 3 m/S 748 mmHg 86%
    15:00 +4°C° 0.4 mm 3 m/S 749 mmHg 91%
    16:00 +4°C° 0.4 mm 2 m/S 749 mmHg 92%
    17:00 +4°C° 0.4 mm 2 m/S 750 mmHg 93%
    18:00 +4°C° 0.4 mm 2 m/S 750 mmHg 94%
    19:00 +4°C° 0.5 mm 2 m/S 751 mmHg 95%
    20:00 +4°C° 0.5 mm 2 m/S 751 mmHg 96%
    21:00 +3°C° 0.5 mm 2 m/S 751 mmHg 97%
    22:00 +4°C° 0.7 mm 1 m/S 751 mmHg 98%
    23:00 +4°C° 0.7 mm 1 m/S 752 mmHg 98%

    9 April, Donnerstag

    Zeit Temperatur Niederschläge Wind Luftdruck Luftfeuchtigkeit
    00:00 +4°C° 0.7 mm 1 m/S 752 mmHg 98%
    01:00 +4°C° 0.8 mm 1 m/S 752 mmHg 98%
    02:00 +4°C° 0.8 mm 1 m/S 752 mmHg 98%
    03:00 +4°C° 0.8 mm 1 m/S 752 mmHg 98%
    04:00 +3°C° 0.6 mm 2 m/S 752 mmHg 98%
    05:00 +2°C° 0.6 mm 2 m/S 752 mmHg 97%
    06:00 +2°C° 0.6 mm 2 m/S 752 mmHg 97%
    07:00 +2°C° 0.3 mm 2 m/S 752 mmHg 96%
    08:00 +1°C° 0.3 mm 3 m/S 752 mmHg 94%
    09:00 +1°C° 0.3 mm 3 m/S 752 mmHg 92%
    10:00 +1°C° 0.5 mm 3 m/S 752 mmHg 91%
    11:00 +1°C° 0.5 mm 3 m/S 752 mmHg 89%
    12:00 +2°C° 0.5 mm 2 m/S 752 mmHg 87%
    13:00 +2°C° 0.9 mm 2 m/S 752 mmHg 90%
    14:00 +2°C° 0.9 mm 2 m/S 753 mmHg 92%
    15:00 +3°C° 0.9 mm 1 m/S 753 mmHg 94%
    16:00 +3°C° 0.3 mm 1 m/S 754 mmHg 93%
    17:00 +2°C° 0.3 mm 1 m/S 755 mmHg 92%
    18:00 +2°C° 0.3 mm 1 m/S 755 mmHg 91%
    19:00 +2°C° 0.1 mm 1 m/S 756 mmHg 93%
    20:00 +2°C° 0.1 mm 1 m/S 757 mmHg 95%
    21:00 +2°C° 0.1 mm 1 m/S 758 mmHg 97%
    22:00 +1°C° 0 mm 1 m/S 758 mmHg 96%
    23:00 +1°C° 0 mm 1 m/S 759 mmHg 95%

    10 April, Freitag

    Zeit Temperatur Niederschläge Wind Luftdruck Luftfeuchtigkeit
    00:00 +1°C° 0 mm 1 m/S 759 mmHg 94%
    01:00 +1°C° 0 mm 1 m/S 759 mmHg 93%
    02:00 +1°C° 0 mm 1 m/S 760 mmHg 91%
    03:00 -1°C° 0 mm 2 m/S 760 mmHg 90%
    04:00 +1°C° 0 mm 1 m/S 760 mmHg 88%
    05:00 +1°C° 0 mm 1 m/S 760 mmHg 86%
    06:00 +1°C° 0 mm 1 m/S 761 mmHg 84%
    07:00 +2°C° 0 mm 1 m/S 760 mmHg 80%
    08:00 +3°C° 0 mm 1 m/S 760 mmHg 77%
    09:00 +5°C° 0 mm 1 m/S 760 mmHg 73%
    10:00 +6°C° 0 mm 1 m/S 760 mmHg 70%
    11:00 +7°C° 0 mm 1 m/S 759 mmHg 66%
    12:00 +8°C° 0 mm 1 m/S 759 mmHg 63%
    13:00 +8°C° 0 mm 1 m/S 759 mmHg 59%
    14:00 +8°C° 0 mm 1 m/S 759 mmHg 56%
    15:00 +9°C° 0 mm 1 m/S 759 mmHg 52%
    16:00 +8°C° 0 mm 1 m/S 758 mmHg 56%
    17:00 +7°C° 0 mm 2 m/S 758 mmHg 61%
    18:00 +6°C° 0 mm 2 m/S 758 mmHg 65%
    19:00 +5°C° 0 mm 2 m/S 758 mmHg 68%
    20:00 +4°C° 0 mm 2 m/S 758 mmHg 71%
    21:00 +3°C° 0 mm 2 m/S 758 mmHg 74%
    22:00 +4°C° 0 mm 1 m/S 758 mmHg 73%
    23:00 +3°C° 0 mm 1 m/S 758 mmHg 72%

    11 April, Samstag

    Zeit Temperatur Niederschläge Wind Luftdruck Luftfeuchtigkeit
    00:00 +3°C° 0 mm 1 m/S 758 mmHg 70%
    01:00 +3°C° 0 mm 1 m/S 758 mmHg 71%
    02:00 +2°C° 0 mm 1 m/S 758 mmHg 71%
    03:00 +2°C° 0 mm 1 m/S 758 mmHg 71%
    04:00 +1°C° 0 mm 2 m/S 758 mmHg 72%
    05:00 +1°C° 0 mm 2 m/S 758 mmHg 73%
    06:00 +1°C° 0 mm 2 m/S 758 mmHg 73%
    07:00 +2°C° 0 mm 2 m/S 758 mmHg 70%
    08:00 +4°C° 0 mm 2 m/S 757 mmHg 67%
    09:00 +5°C° 0 mm 2 m/S 757 mmHg 63%
    10:00 +6°C° 0 mm 2 m/S 757 mmHg 60%
    11:00 +8°C° 0 mm 3 m/S 756 mmHg 58%
    12:00 +9°C° 0 mm 3 m/S 756 mmHg 55%
    13:00 +9°C° 0 mm 3 m/S 755 mmHg 53%
    14:00 +10°C° 0 mm 3 m/S 755 mmHg 51%
    15:00 +10°C° 0 mm 3 m/S 755 mmHg 49%
    16:00 +10°C° 0 mm 3 m/S 754 mmHg 52%
    17:00 +9°C° 0 mm 3 m/S 754 mmHg 55%
    18:00 +9°C° 0 mm 3 m/S 754 mmHg 57%
    19:00 +8°C° 0 mm 3 m/S 754 mmHg 61%
    20:00 +5°C° 0 mm 3 m/S 754 mmHg 65%
    21:00 +4°C° 0 mm 3 m/S 754 mmHg 70%
    22:00 +3°C° 0 mm 3 m/S 753 mmHg 71%
    23:00 +3°C° 0 mm 3 m/S 753 mmHg 73%
    Mehr zeigen